This is the latest recevied weather packets stored in our database for station/object WA9AFM. If no packets are shown the sender has not sent any weather packets the latest 10 day(s).
| Time | Temp. | Humidity | Pressure | Rain* | Wind** | Luminosity | Snow |
|---|---|---|---|---|---|---|---|
| 1787495741 | 27.22° C | 70% | 1011.2 hPa | 0 mm | - | - | - |
| 1787494840 | 26.67° C | 72% | 1011.4 hPa | 0 mm | - | - | - |
| 1787493941 | 25.56° C | 74% | 1011.4 hPa | 0 mm | - | - | - |
| 1787493041 | 24.44° C | 77% | 1011.2 hPa | 0 mm | - | - | - |
| 1787492140 | 23.89° C | 79% | 1011.3 hPa | 0 mm | - | - | - |
| 1787491241 | 23.33° C | 80% | 1011.4 hPa | 0 mm | - | - | - |
| 1787490340 | 22.78° C | 81% | 1011.3 hPa | 0 mm | - | - | - |
| 1787489441 | 22.78° C | 81% | 1011.2 hPa | 0 mm | - | - | - |
| 1787488541 | 22.78° C | 82% | 1011 hPa | 0 mm | - | - | - |
| 1787487640 | 22.22° C | 81% | 1011.1 hPa | 0 mm | - | - | - |
| 1787486741 | 22.78° C | 81% | 1011 hPa | 0 mm | - | - | - |
| 1787485841 | 22.78° C | 80% | 1010.9 hPa | 0 mm | - | - | - |
| 1787484940 | 22.78° C | 79% | 1010.8 hPa | 0 mm | - | - | - |
| 1787484041 | 22.78° C | 80% | 1010.5 hPa | 0 mm | - | - | - |
| 1787483140 | 22.78° C | 80% | 1010.5 hPa | 0 mm | - | - | - |
| 1787482241 | 22.78° C | 80% | 1010.4 hPa | 0 mm | - | - | - |
| 1787481341 | 23.33° C | 79% | 1010.4 hPa | 0 mm | - | - | - |
| 1787480442 | 23.33° C | 79% | 1010.5 hPa | 0 mm | - | - | - |
| 1787479541 | 23.33° C | 78% | 1010.5 hPa | 0 mm | - | - | - |
| 1787478640 | 23.33° C | 78% | 1010.4 hPa | 0 mm | - | - | - |
| 1787477740 | 23.89° C | 78% | 1010.3 hPa | 0 mm | - | - | - |
| 1787476841 | 23.89° C | 78% | 1010.4 hPa | 0 mm | - | - | - |
| 1787475940 | 23.89° C | 78% | 1010.3 hPa | 0 mm | - | - | - |
| 1787475041 | 23.89° C | 78% | 1010.2 hPa | 0 mm | - | - | - |
| 1787474141 | 24.44° C | 77% | 1010.2 hPa | 0 mm | - | - | - |
* Rain latest hour (hover to see other rain measurements)
** Current wind speed in m/s (hover to see current wind gust speed)